Location: Grange Verzio
(44.5000°N, 6.9833°E)
Time: 17:58:55
(UTC+00:00)

Cosmos 2219 Rocket - Pass Details

Date: 28 September 2023
Orbit: 826 x 848 km, 71.0° (Epoch: 08 December)

Event Time Altitude Azimuth Distance (km) Brightness Sun altitude
Rises 17:37:22 0° 188° (S) 3,348 5.4 -4.1°
Reaches altitude 10° 17:39:50 10° 183° (S) 2,420 4.6 -4.5°
Maximum altitude 17:45:10 51° 109° (ESE) 1,039 2.4 -5.5°
Drops below altitude 10° 17:50:33 10° 35° (NE) 2,443 4.3 -6.4°
Sets 17:53:03 0° 30° (NNE) 3,384 5.1 -6.9°
